FW8325 Weather Reports


Display with metric or nautical units.
time (UTC)temp
F
wind
direction
speed
MPH
gust
MPH
rain 1hr
in
rain 24hr
in
rain mn
in
humidity
%
barometer
mb
20260906224609 75 193 3.0 9.0 0.00 0.00 0.00 32 1014.6
20260906223616 75 174 2.0 12.0 0.00 0.00 0.00 35 1014.6
20260906222623 75 192 6.0 17.0 0.00 0.00 0.00 33 1014.7
20260906221610 75 163 3.0 22.0 0.00 0.00 0.00 37 1014.8
20260906220619 76 186 3.0 20.0 0.00 0.00 0.00 33 1014.8
20260906215611 76 201 4.0 20.0 0.00 0.00 0.00 31 1014.8
20260906214619 76 205 2.0 10.0 0.00 0.00 0.00 31 1014.8
20260906213627 76 227 4.0 16.0 0.00 0.00 0.00 27 1014.8
20260906212613 76 219 2.0 18.0 0.00 0.00 0.00 34 1014.9
20260906211623 76 236 3.0 21.0 0.00 0.00 0.00 30 1014.8
20260906210610 76 217 6.0 16.0 0.00 0.00 0.00 29 1015.1
20260906205619 76 174 9.0 23.0 0.00 0.00 0.00 28 1015.2
20260906204626 76 214 7.0 20.0 0.00 0.00 0.00 28 1015.2
20260906203618 77 152 2.0 19.0 0.00 0.00 0.00 28 1015.2
20260906202626 77 198 2.0 21.0 0.00 0.00 0.00 24 1015.3
20260906201613 77 119 4.0 15.0 0.00 0.00 0.00 26 1015.3
20260906200641 76 192 5.0 22.0 0.00 0.00 0.00 28 1015.4
20260906195649 76 196 1.0 22.0 0.00 0.00 0.00 27 1015.6
20260906194619 75 214 3.0 18.0 0.00 0.00 0.00 29 1015.5
20260906193644 75 178 1.0 12.0 0.00 0.00 0.00 28 1015.9
20260906192633 76 206 1.0 27.0 0.00 0.00 0.00 25 1015.8
20260906191619 75 188 5.0 28.0 0.00 0.00 0.00 29 1015.8
20260906190610 76 201 3.0 15.0 0.00 0.00 0.00 25 1015.9
20260906185637 76 205 4.0 16.0 0.00 0.00 0.00 26 1016.1
20260906184623 76 172 1.0 14.0 0.00 0.00 0.00 23 1016.2
20260906183627 75 239 3.0 12.0 0.00 0.00 0.00 26 1016.4
20260906182611 74 163 1.0 15.0 0.00 0.00 0.00 29 1016.5
20260906181619 74 178 1.0 7.0 0.00 0.00 0.00 31 1016.6
20260906180616 75 290 0.0 3.0 0.00 0.00 0.00 29 1016.9
20260906175642 74 198 1.0 6.0 0.00 0.00 0.00 29 1017.1
20260906174627 71 174 1.0 8.0 0.00 0.00 0.00 36 1017.3
20260906173614 69 94 0.0 0.0 0.00 0.00 0.00 45 1017.4
20260906172646 68 27 0.0 0.0 0.00 0.00 0.00 50 1017.5
20260906171612 68 49 0.0 0.0 0.00 0.00 0.00 48 1017.6
20260906170621 67 21 0.0 0.0 0.00 0.00 0.00 50 1017.7
20260906165628 66 14 0.0 0.0 0.00 0.00 0.00 52 1017.7
20260906164620 67 40 0.0 0.0 0.00 0.00 0.00 52 1018.0
20260906163626 66 42 0.0 0.0 0.00 0.00 0.00 54 1018.1
20260906162615 66 32 0.0 0.0 0.00 0.00 0.00 53 1018.2
20260906161620 65 40 0.0 0.0 0.00 0.00 0.00 54 1018.2
20260906160628 65 43 0.0 0.0 0.00 0.00 0.00 56 1018.2
20260906155616 63 39 0.0 0.0 0.00 0.00 0.00 59 1018.4
20260906154620 62 29 0.0 0.0 0.00 0.00 0.00 64 1018.4
20260906153647 62 13 0.0 0.0 0.00 0.00 0.00 66 1018.4
20260906152612 61 347 0.0 0.0 0.00 0.00 0.00 66 1018.5
20260906151642 61 355 0.0 0.0 0.00 0.00 0.00 66 1018.5
20260906150609 61 9 0.0 0.0 0.00 0.00 0.00 68 1018.5
20260906145617 61 355 0.0 0.0 0.00 0.00 0.00 70 1018.5
20260906144624 61 360 0.0 0.0 0.00 0.00 0.00 68 1018.5
20260906143615 61 338 0.0 0.0 0.00 0.00 0.00 61 1018.5
20260906142623 60 271 0.0 0.0 0.00 0.00 0.00 55 1018.5
20260906141611 58 271 0.0 0.0 0.00 0.00 0.00 53 1018.4
20260906140619 57 271 0.0 0.0 0.00 0.00 0.00 49 1018.4
20260906135611 56 271 0.0 0.0 0.00 0.00 0.00 49 1018.3
20260906134619 55 271 0.0 0.0 0.00 0.00 0.00 48 1018.3
20260906133628 55 271 0.0 0.0 0.00 0.00 0.00 48 1018.2
20260906132634 54 273 0.0 0.0 0.00 0.00 0.00 52 1018.0
20260906131622 53 275 0.0 0.0 0.00 0.00 0.00 53 1018.0
20260906130627 52 273 0.0 0.0 0.00 0.00 0.00 55 1018.0
20260906125615 52 271 0.0 0.0 0.00 0.00 0.00 55 1018.0
20260906124641 53 267 0.0 0.0 0.00 0.00 0.00 52 1018.0
20260906123626 53 269 0.0 0.0 0.00 0.00 0.00 49 1018.0
20260906122618 53 270 0.0 0.0 0.00 0.00 0.00 49 1018.0
20260906121624 53 271 0.0 0.0 0.00 0.00 0.00 49 1018.0
20260906120624 53 273 0.0 0.0 0.00 0.00 0.00 50 1018.0
20260906115611 52 267 0.0 0.0 0.00 0.00 0.00 52 1018.0
20260906114619 52 263 0.0 0.0 0.00 0.00 0.00 53 1018.0
20260906113629 54 275 0.0 0.0 0.00 0.00 0.00 44 1018.1
20260906112616 54 277 0.0 0.0 0.00 0.00 0.00 42 1018.0
20260906111625 54 279 0.0 0.0 0.00 0.00 0.00 43 1018.0
20260906110612 54 261 0.0 0.0 0.00 0.00 0.00 43 1018.1
20260906105625 54 261 0.0 0.0 0.00 0.00 0.00 41 1018.1
20260906104612 55 260 0.0 0.0 0.00 0.00 0.00 41 1017.9
20260906103638 54 260 0.0 0.0 0.00 0.00 0.00 41 1017.9
20260906102625 53 262 0.0 0.0 0.00 0.00 0.00 43 1017.8
20260906101615 54 263 0.0 0.0 0.00 0.00 0.00 44 1017.8
20260906100623 55 276 0.0 0.0 0.00 0.00 0.00 41 1017.7
20260906095629 54 275 0.0 0.0 0.00 0.00 0.00 42 1017.6
20260906094615 54 266 0.0 0.0 0.00 0.00 0.00 42 1017.6
20260906093626 54 246 0.0 0.0 0.00 0.00 0.00 44 1017.5
20260906092650 53 247 0.0 0.0 0.00 0.00 0.00 45 1017.4
20260906091614 55 266 0.0 0.0 0.00 0.00 0.00 47 1017.4
20260906090621 55 266 0.0 0.0 0.00 0.00 0.00 46 1017.5
20260906085610 54 264 0.0 0.0 0.00 0.00 0.00 47 1017.3
20260906084622 54 264 0.0 0.0 0.00 0.00 0.00 46 1017.3
20260906083629 55 265 0.0 0.0 0.00 0.00 0.00 45 1017.2
20260906082638 55 265 0.0 0.0 0.00 0.00 0.00 48 1017.4
20260906081625 56 261 0.0 0.0 0.00 0.00 0.00 45 1017.3
20260906080615 56 261 0.0 0.0 0.00 0.00 0.00 44 1017.5
20260906075645 56 261 0.0 0.0 0.00 0.00 0.00 44 1017.5
20260906074611 56 232 0.0 0.0 0.00 0.00 0.00 42 1017.5
20260906073618 56 232 0.0 0.0 0.00 0.00 0.00 43 1017.4
20260906072610 57 239 0.0 0.0 0.00 0.00 0.00 44 1017.5
20260906071638 58 267 0.0 0.0 0.00 0.00 0.00 40 1017.4
20260906070623 58 267 0.0 0.0 0.00 0.00 0.00 41 1017.4
20260906065614 58 193 0.0 0.0 0.00 0.00 0.00 39 1017.5
20260906064623 56 193 0.0 0.0 0.00 0.00 0.00 46 1017.4
20260906063617 58 193 0.0 0.0 0.00 0.00 0.00 40 1017.4
20260906062644 59 193 0.0 0.0 0.00 0.00 0.00 40 1017.5
20260906061627 59 193 0.0 0.0 0.00 0.00 0.00 43 1017.3
20260906060626 61 198 0.0 0.0 0.00 0.00 0.00 46 1017.4
20260906055614 59 232 0.0 0.0 0.00 0.00 0.00 44 1017.3
20260906054625 59 257 0.0 0.0 0.00 0.00 0.00 42 1017.2
20260906053628 60 269 0.0 0.0 0.00 0.00 0.00 39 1017.2
20260906052613 60 278 0.0 0.0 0.00 0.00 0.00 39 1017.3
20260906051620 61 232 0.0 0.0 0.00 0.00 0.00 40 1017.4
20260906050646 61 232 0.0 0.0 0.00 0.00 0.00 37 1017.4
20260906045639 62 241 0.0 0.0 0.00 0.00 0.00 38 1017.4
20260906044645 62 270 0.0 1.0 0.00 0.00 0.00 36 1017.5
20260906043612 62 277 0.0 0.0 0.00 0.00 0.00 34 1017.5
20260906042621 62 259 0.0 0.0 0.00 0.00 0.00 36 1017.5
20260906041612 63 280 0.0 0.0 0.00 0.00 0.00 34 1017.4
20260906040616 62 272 0.0 0.0 0.00 0.00 0.00 42 1017.2
20260906035623 64 200 0.0 0.0 0.00 0.00 0.00 40 1017.2
20260906034611 65 200 0.0 0.0 0.00 0.00 0.00 32 1017.1
20260906033638 66 201 0.0 0.0 0.00 0.00 0.00 34 1016.9
20260906032627 67 202 0.0 0.0 0.00 0.00 0.00 31 1016.8
20260906031614 68 202 0.0 0.0 0.00 0.00 0.00 32 1016.8
20260906030622 70 121 0.0 7.0 0.00 0.00 0.00 35 1016.8
20260906025612 69 101 0.0 2.0 0.00 0.00 0.00 44 1016.6
20260906024624 69 259 0.0 1.0 0.00 0.00 0.00 27 1016.3
20260906023611 69 271 0.0 2.0 0.00 0.00 0.00 27 1016.3
20260906022618 69 267 0.0 1.0 0.00 0.00 0.00 27 1016.2
20260906021610 68 259 0.0 1.0 0.00 0.00 0.00 27 1016.2
20260906020617 68 260 0.0 0.0 0.00 0.00 0.00 29 1016.3
20260906015625 68 263 0.0 0.0 0.00 0.00 0.00 29 1016.3
20260906014614 71 253 0.0 0.0 0.00 0.00 0.00 26 1016.3
20260906013622 73 228 0.0 0.0 0.00 0.00 0.00 26 1016.4
20260906012635 73 240 0.0 2.0 0.00 0.00 0.00 25 1016.5
20260906011621 75 228 0.0 1.0 0.00 0.00 0.00 23 1016.5
20260906010628 77 202 0.0 2.0 0.00 0.00 0.00 26 1016.5
20260906005636 77 221 0.0 2.0 0.00 0.00 0.00 22 1016.5
20260906004643 77 209 1.0 8.0 0.00 0.00 0.00 22 1016.4
20260906003612 78 212 4.0 15.0 0.00 0.00 0.00 22 1016.3
20260906002620 79 209 2.0 7.0 0.00 0.00 0.00 19 1016.2
20260906001628 78 203 2.0 13.0 0.00 0.00 0.00 19 1016.2
20260906000628 78 205 2.0 9.0 0.00 0.00 0.00 26 1016.2
20260905235620 79 223 1.0 4.0 0.00 0.00 0.00 20 1016.1
20260905234648 79 250 0.0 13.0 0.00 0.00 0.00 17 1016.1
20260905233613 78 214 4.0 13.0 0.00 0.00 0.00 23 1016.1
20260905232620 78 188 3.0 19.0 0.00 0.00 0.00 24 1016.0
20260905231625 78 211 5.0 22.0 0.00 0.00 0.00 21 1016.1
20260905230615 79 210 5.0 21.0 0.00 0.00 0.00 21 1016.1
20260905225620 78 194 5.0 23.0 0.00 0.00 0.00 22 1016.0